FW2061 Weather Reports


time (UTC)temp
F
wind
direction
speed
knots
gust
knots
rain 1hr
in
rain 24hr
in
rain mn
in
humidity
%
barometer
mb
20260507040553 55 238 0.0 0.0 0.00 0.00 0.00 86 1020.4
20260507040035 55 238 0.0 0.0 0.00 0.00 0.00 86 1020.3
20260507035546 55 238 0.0 0.0 0.00 0.00 0.00 86 1020.4
20260507035030 55 238 0.0 0.0 0.00 0.00 0.00 85 1020.3
20260507034541 55 238 0.0 0.0 0.00 0.00 0.00 85 1020.3
20260507034032 55 238 0.0 0.9 0.00 0.00 0.00 85 1020.1
20260507033534 55 238 0.0 1.7 0.00 0.00 0.00 85 1020.1
20260507033026 56 238 0.0 1.7 0.00 0.00 0.00 84 1020.2
20260507032538 56 238 0.0 0.9 0.00 0.00 0.00 84 1020.0
20260507032039 56 238 0.0 1.7 0.00 0.00 0.00 84 1020.0
20260507031553 56 285 0.9 3.5 0.00 0.00 0.00 84 1020.0
20260507031044 56 300 0.9 4.3 0.00 0.00 0.00 84 1019.9
20260507030526 56 323 1.7 4.3 0.00 0.00 0.00 84 1020.1
20260507030038 56 297 2.6 4.3 0.00 0.00 0.00 83 1020.0
20260507025531 56 285 2.6 4.3 0.00 0.00 0.00 83 1019.9
20260507025035 56 283 0.9 3.5 0.00 0.00 0.00 83 1019.9
20260507024527 57 293 0.0 3.5 0.00 0.00 0.00 84 1019.9
20260507024056 57 298 0.9 3.5 0.00 0.00 0.00 83 1019.9
20260507023545 57 278 0.9 2.6 0.00 0.00 0.00 83 1019.9
20260507023057 57 277 0.9 1.7 0.00 0.00 0.00 83 1019.8
20260507022546 57 276 0.9 3.5 0.00 0.00 0.00 83 1019.9
20260507022029 57 273 0.0 3.5 0.00 0.00 0.00 83 1019.8
20260507021541 57 290 0.0 2.6 0.00 0.00 0.00 83 1019.9
20260507021051 57 290 0.9 2.6 0.00 0.00 0.00 82 1019.9
20260507020543 57 302 1.7 2.6 0.00 0.00 0.00 83 1019.9
20260507020025 57 302 0.9 3.5 0.00 0.00 0.00 83 1019.9
20260507015535 57 343 2.6 4.3 0.00 0.00 0.00 82 1019.8
20260507015047 57 343 2.6 4.3 0.00 0.00 0.00 82 1019.8
20260507014529 57 326 2.6 4.3 0.00 0.00 0.00 82 1019.8
20260507014041 57 304 1.7 5.2 0.00 0.00 0.00 82 1019.8
20260507013525 57 306 1.7 5.2 0.00 0.00 0.00 82 1019.7
20260507013058 57 353 2.6 5.2 0.00 0.00 0.00 82 1019.7
20260507012529 57 316 3.5 5.2 0.00 0.00 0.00 81 1019.8
20260507012027 57 29 2.6 5.2 0.00 0.00 0.00 81 1019.7
20260507011540 57 336 2.6 5.2 0.00 0.00 0.00 81 1019.6
20260507011050 57 360 1.7 5.2 0.00 0.00 0.00 81 1019.7
20260507010541 57 360 3.5 5.2 0.00 0.00 0.00 81 1019.8
20260507010050 57 298 1.7 4.3 0.00 0.00 0.00 81 1019.8
20260507005552 58 20 2.6 4.3 0.00 0.00 0.00 80 1019.8
20260507005042 58 139 0.9 1.7 0.00 0.00 0.00 80 1019.9
20260507004532 58 243 0.9 2.6 0.00 0.00 0.00 81 1020.0
20260507003557 57 297 0.9 2.6 0.00 0.00 0.00 81 1019.9
20260507003040 58 287 0.9 2.6 0.00 0.00 0.00 80 1019.9
20260507002533 58 276 0.9 4.3 0.00 0.00 0.00 81 1019.9
20260507002046 57 356 0.0 4.3 0.00 0.00 0.00 80 1019.8
20260507001553 58 311 0.9 3.5 0.00 0.00 0.00 81 1019.8
20260507001044 57 328 1.7 6.1 0.00 0.00 0.00 81 1019.7
20260507000528 57 321 2.6 6.1 0.00 0.00 0.00 81 1019.9
20260507000037 57 353 1.7 5.2 0.00 0.00 0.00 81 1019.8
20260506235550 57 200 1.7 5.2 0.00 0.00 0.00 81 1019.8
20260506235033 57 287 0.9 8.7 0.00 0.00 0.00 81 1019.8
20260506234547 57 224 0.0 8.7 0.00 0.00 0.00 81 1019.9
20260506234026 57 347 2.6 5.2 0.00 0.00 0.00 82 1019.9
20260506233539 57 239 2.6 5.2 0.00 0.00 0.00 82 1019.9
20260506233047 57 306 2.6 6.1 0.00 0.00 0.00 82 1019.9
20260506232531 57 305 3.5 6.1 0.00 0.00 0.00 82 1019.9
20260506232022 57 314 2.6 5.2 0.00 0.00 0.00 82 1019.8
20260506231524 57 7 2.6 5.2 0.00 0.00 0.00 82 1019.9
20260506231037 57 356 3.5 7.0 0.00 0.00 0.00 82 1019.9
20260506230529 57 329 3.5 7.0 0.00 0.00 0.00 82 1020.0
20260506230041 57 347 3.5 7.8 0.00 0.00 0.00 82 1020.0
20260506225524 57 8 3.5 7.8 0.00 0.00 0.00 82 1019.9
20260506225035 57 322 2.6 7.0 0.00 0.00 0.00 82 1020.0
20260506224546 57 25 4.3 7.8 0.00 0.00 0.00 82 1020.0
20260506224029 57 17 4.3 9.6 0.00 0.00 0.00 82 1019.9
20260506223538 57 1 4.3 9.6 0.00 0.00 0.00 82 1019.9
20260506223048 57 359 2.6 7.0 0.00 0.00 0.00 83 1019.9
20260506222540 56 22 0.9 7.8 0.00 0.00 0.00 84 1020.0
20260506222040 56 340 1.7 7.8 0.00 0.00 0.00 84 1020.1
20260506221532 56 347 3.5 5.2 0.00 0.00 0.00 84 1020.1
20260506221043 56 1 2.6 6.1 0.00 0.00 0.00 84 1020.1
20260506220527 56 59 1.7 6.1 0.00 0.00 0.00 84 1020.1
20260506220040 56 347 3.5 6.1 0.00 0.00 0.00 84 1020.2
20260506215551 56 304 1.7 7.8 0.00 0.00 0.00 84 1020.2
20260506215054 56 27 3.5 7.8 0.00 0.00 0.00 83 1020.2
20260506214524 56 309 3.5 6.1 0.00 0.00 0.00 84 1020.2
20260506214034 56 15 2.6 7.8 0.00 0.00 0.00 85 1020.2
20260506213606 56 355 3.5 7.8 0.00 0.00 0.00 84 1020.1
20260506213024 56 345 4.3 7.0 0.00 0.00 0.00 84 1020.1
20260506212537 56 303 3.5 7.0 0.00 0.00 0.00 84 1020.1
20260506212049 55 285 2.6 7.0 0.00 0.00 0.00 85 1020.1
20260506211531 56 15 4.3 7.0 0.00 0.00 0.00 84 1020.1
20260506211100 56 360 3.5 6.1 0.00 0.00 0.00 85 1020.1
20260506210531 55 286 1.7 8.7 0.00 0.00 0.00 85 1020.1
20260506205524 56 339 4.3 7.8 0.00 0.00 0.00 83 1020.2
20260506205035 57 228 2.6 7.8 0.00 0.00 0.00 81 1020.2
20260506204525 58 55 3.5 7.0 0.00 0.00 0.00 78 1020.1
20260506204038 58 110 3.5 10.4 0.00 0.00 0.00 79 1020.0
20260506203540 58 190 4.3 10.4 0.00 0.00 0.00 79 1019.9
20260506203030 58 117 5.2 9.6 0.00 0.00 0.00 79 1019.9
20260506202540 58 116 6.1 9.6 0.00 0.00 0.00 79 1020.1
20260506202042 58 149 6.1 10.4 0.00 0.00 0.00 78 1019.9
20260506201535 58 140 6.1 10.4 0.00 0.00 0.00 79 1019.9
20260506201048 58 105 5.2 8.7 0.00 0.00 0.00 80 1019.8
20260506200531 58 111 5.2 8.7 0.00 0.00 0.00 80 1019.7
20260506200040 58 127 5.2 8.7 0.00 0.00 0.00 80 1019.8
20260506195524 57 134 5.2 7.8 0.00 0.00 0.00 80 1019.9
20260506195037 57 163 4.3 8.7 0.00 0.00 0.00 81 1019.9
20260506194528 57 101 3.5 8.7 0.00 0.00 0.00 82 1020.0
20260506194026 57 111 5.2 8.7 0.00 0.00 0.00 82 1020.0
20260506193539 57 78 3.5 7.8 0.00 0.00 0.00 82 1020.1
20260506193028 57 110 5.2 7.8 0.00 0.00 0.00 82 1019.8
20260506192531 57 188 2.6 7.8 0.00 0.00 0.00 82 1019.9
20260506192043 57 135 4.3 7.8 0.00 0.00 0.00 82 1019.7
20260506191532 57 114 4.3 10.4 0.00 0.00 0.00 83 1019.7
20260506191022 57 79 5.2 10.4 0.00 0.00 0.00 83 1019.7
20260506190532 57 213 2.6 9.6 0.00 0.00 0.00 84 1019.7
20260506190103 57 122 4.3 9.6 0.00 0.00 0.00 83 1019.6
20260506185546 57 113 5.2 9.6 0.00 0.00 0.00 83 1019.7
20260506185044 57 103 4.3 9.6 0.00 0.00 0.00 83 1019.6
20260506184527 57 108 5.2 9.6 0.00 0.00 0.00 83 1019.6
20260506184036 57 176 4.3 9.6 0.00 0.00 0.00 83 1019.6
20260506183543 57 95 6.1 12.2 0.00 0.00 0.00 84 1019.6
20260506183027 57 121 7.8 12.2 0.00 0.00 0.00 84 1019.6
20260506182539 57 122 5.2 9.6 0.00 0.00 0.00 85 1019.5
20260506182046 56 105 5.2 9.6 0.00 0.00 0.00 85 1019.5
20260506181529 56 135 5.2 9.6 0.00 0.00 0.00 85 1019.6
20260506181036 56 119 3.5 10.4 0.00 0.00 0.00 85 1019.6
20260506180549 56 115 6.1 10.4 0.00 0.00 0.00 85 1019.5
20260506180100 56 115 5.2 9.6 0.00 0.00 0.00 86 1019.4
20260506175541 56 160 6.1 8.7 0.00 0.00 0.00 85 1019.5
20260506175031 56 153 4.3 10.4 0.00 0.00 0.00 85 1019.5
20260506174545 56 86 5.2 10.4 0.00 0.00 0.00 85 1019.5
20260506174023 56 122 6.1 7.8 0.00 0.00 0.00 85 1019.3
20260506173604 56 102 5.2 7.8 0.00 0.00 0.00 85 1019.5
20260506173024 56 170 5.2 10.4 0.00 0.00 0.00 85 1019.4
20260506172535 56 100 6.1 10.4 0.00 0.00 0.00 85 1019.2
20260506172043 56 106 5.2 8.7 0.00 0.00 0.00 85 1019.1
20260506171525 56 138 5.2 8.7 0.00 0.00 0.00 86 1019.0
20260506171036 56 147 5.2 7.8 0.00 0.00 0.00 86 1019.0
20260506170549 56 132 5.2 7.8 0.00 0.00 0.00 86 1019.1
20260506170032 56 115 3.5 7.0 0.00 0.00 0.00 87 1019.1
20260506165545 56 106 3.5 7.0 0.00 0.00 0.00 87 1019.2
20260506165027 56 108 3.5 7.0 0.00 0.00 0.00 87 1019.4
20260506164559 56 117 2.6 7.0 0.00 0.00 0.00 87 1019.2
20260506164029 56 121 4.3 7.0 0.00 0.00 0.00 87 1019.2
20260506163542 56 113 4.3 7.8 0.00 0.00 0.00 87 1019.0
20260506163042 56 122 3.5 7.8 0.00 0.00 0.00 87 1019.2
20260506162532 56 123 2.6 7.0 0.00 0.00 0.00 86 1019.4
20260506162042 56 181 1.7 5.2 0.00 0.00 0.00 87 1019.4
20260506161524 55 129 2.6 5.2 0.00 0.00 0.00 87 1019.4
20260506161036 55 58 2.6 7.0 0.00 0.00 0.00 87 1019.2
20260506160547 55 156 2.6 7.0 0.00 0.00 0.00 87 1019.2
20260506160022 55 132 3.5 6.1 0.00 0.00 0.00 87 1019.2
20260506155533 55 110 4.3 7.8 0.00 0.00 0.00 87 1019.1
20260506155024 55 124 4.3 7.8 0.00 0.00 0.00 87 1019.1
20260506154524 55 108 4.3 7.8 0.00 0.00 0.00 87 1019.0
20260506154036 55 127 4.3 10.4 0.00 0.00 0.00 87 1018.9
20260506153548 55 138 7.0 10.4 0.00 0.00 0.00 88 1018.7
20260506153031 55 116 6.1 9.6 0.00 0.00 0.00 88 1018.7
20260506152544 55 122 6.1 10.4 0.00 0.00 0.00 89 1018.8
20260506152035 54 115 6.1 10.4 0.00 0.00 0.00 90 1018.5
20260506151546 54 127 6.1 11.3 0.00 0.00 0.00 90 1018.6
20260506151049 54 132 7.8 11.3 0.00 0.00 0.00 91 1018.6
20260506150539 54 127 6.1 8.7 0.00 0.00 0.00 92 1018.6
20260506150028 54 124 6.1 7.8 0.00 0.00 0.00 92 1018.7
20260506145532 53 129 5.2 7.0 0.00 0.00 0.00 93 1018.7
20260506145042 53 122 4.3 7.0 0.00 0.00 0.00 93 1018.8
20260506144532 53 140 0.9 2.6 0.00 0.00 0.00 93 1019.0
20260506144036 53 250 0.9 1.7 0.00 0.00 0.00 93 1019.1
20260506143527 53 186 0.0 5.2 0.00 0.00 0.00 94 1019.0
20260506143034 53 134 1.7 5.2 0.00 0.00 0.00 93 1018.7
20260506142603 53 127 2.6 5.2 0.00 0.00 0.00 94 1018.5
20260506142053 53 150 4.3 5.2 0.00 0.00 0.00 93 1018.5
20260506141537 53 140 2.6 3.5 0.00 0.00 0.00 93 1018.5
20260506141042 53 145 1.7 4.3 0.00 0.00 0.00 93 1018.6
20260506140525 53 132 3.5 4.3 0.00 0.00 0.00 93 1018.6
20260506140036 53 128 3.5 4.3 0.00 0.00 0.00 93 1018.6
20260506135549 53 179 2.6 4.3 0.00 0.00 0.00 93 1018.5
20260506135030 53 130 2.6 5.2 0.00 0.00 0.00 93 1018.5
20260506134542 53 121 3.5 6.1 0.00 0.00 0.00 93 1018.5
20260506134052 53 161 4.3 7.0 0.00 0.00 0.00 93 1018.4
20260506133542 53 134 4.3 7.0 0.00 0.00 0.00 93 1018.3
20260506133042 53 122 2.6 3.5 0.00 0.00 0.00 92 1018.5
20260506132534 53 188 1.7 3.5 0.00 0.00 0.00 93 1018.6
20260506132046 53 194 0.9 2.6 0.00 0.00 0.00 93 1018.4
20260506131529 53 195 0.0 2.6 0.00 0.00 0.00 93 1018.5
20260506131040 53 195 0.0 2.6 0.00 0.00 0.00 93 1018.6
20260506130551 53 185 0.9 2.6 0.00 0.00 0.00 93 1018.4
20260506130033 52 203 0.0 1.7 0.00 0.00 0.00 93 1018.4
20260506125608 52 236 0.0 0.9 0.00 0.00 0.00 93 1018.5
20260506125029 52 214 0.0 0.0 0.00 0.00 0.00 93 1018.3
20260506124542 52 214 0.0 0.0 0.00 0.00 0.00 93 1018.1
20260506124026 52 214 0.0 0.0 0.00 0.00 0.00 93 1018.1
20260506123539 52 214 0.0 0.0 0.00 0.00 0.00 93 1018.0
20260506123050 52 214 0.0 1.7 0.00 0.00 0.00 93 1018.0
20260506122539 52 213 0.0 1.7 0.00 0.00 0.00 93 1018.0
20260506122040 52 214 0.0 1.7 0.00 0.00 0.00 93 1018.0
20260506121532 52 234 0.0 0.0 0.00 0.00 0.00 93 1018.0
20260506121043 52 234 0.0 0.0 0.00 0.00 0.00 93 1018.1
20260506120527 52 235 0.0 0.0 0.00 0.00 0.00 93 1018.2
20260506120039 52 235 0.0 0.0 0.00 0.00 0.00 94 1018.0
20260506115551 52 235 0.0 0.0 0.00 0.00 0.00 93 1018.1
20260506115033 52 235 0.0 0.0 0.00 0.00 0.00 94 1018.1
20260506114526 52 234 0.0 0.0 0.00 0.00 0.00 94 1018.2
20260506114038 51 234 0.0 0.0 0.00 0.00 0.00 94 1018.1
20260506113541 51 234 0.0 0.0 0.00 0.00 0.00 94 1018.0
20260506113029 51 235 0.0 0.0 0.00 0.00 0.00 94 1017.9
20260506112541 51 234 0.0 0.0 0.00 0.00 0.00 94 1017.9
20260506112049 51 235 0.0 0.0 0.00 0.00 0.00 94 1017.9
20260506111529 51 234 0.0 0.0 0.00 0.00 0.00 94 1017.8
20260506111040 51 235 0.0 0.0 0.00 0.00 0.00 94 1017.8
20260506110524 51 234 0.0 0.0 0.00 0.00 0.00 94 1017.7
20260506110036 51 234 0.0 0.0 0.00 0.00 0.00 94 1017.6
20260506105529 51 234 0.0 0.0 0.00 0.00 0.00 94 1017.5
20260506105030 50 235 0.0 0.0 0.00 0.00 0.00 94 1017.4
20260506104551 50 234 0.0 0.9 0.00 0.00 0.00 94 1017.2
20260506104032 50 235 0.0 0.9 0.00 0.00 0.00 94 1017.2
20260506103526 50 234 0.0 0.9 0.00 0.00 0.00 94 1017.2
20260506103025 50 235 0.0 0.9 0.00 0.00 0.00 94 1017.2
20260506102537 50 234 0.0 0.9 0.00 0.00 0.00 94 1017.1
20260506102028 50 235 0.0 0.9 0.00 0.00 0.00 94 1017.1
20260506101532 50 235 0.0 0.0 0.00 0.00 0.00 94 1017.1
20260506101024 50 235 0.0 0.0 0.00 0.00 0.00 94 1017.1
20260506100551 50 234 0.0 0.9 0.00 0.00 0.00 94 1017.1
20260506100042 50 234 0.0 0.9 0.00 0.00 0.00 93 1017.0
20260506095552 50 234 0.9 1.7 0.00 0.00 0.00 94 1017.0
20260506095036 50 235 0.9 1.7 0.00 0.00 0.00 93 1017.0
20260506094528 50 235 1.7 1.7 0.00 0.00 0.00 94 1017.0
20260506094032 50 234 0.9 1.7 0.00 0.00 0.00 93 1017.0
20260506093524 50 235 0.9 1.7 0.00 0.00 0.00 93 1017.0
20260506093036 50 235 0.0 0.0 0.00 0.00 0.00 93 1016.9
20260506092539 51 234 0.0 0.0 0.00 0.00 0.00 94 1016.9
20260506092030 51 234 0.0 0.0 0.00 0.00 0.00 93 1016.9
20260506091543 51 234 0.0 0.9 0.00 0.00 0.00 93 1016.8
20260506091025 51 235 0.0 0.9 0.00 0.00 0.00 93 1016.8
20260506090558 51 235 0.0 1.7 0.00 0.00 0.00 93 1016.9
20260506090028 51 235 0.9 2.6 0.00 0.00 0.00 93 1017.0
20260506085538 51 246 0.9 2.6 0.00 0.00 0.00 92 1017.0
20260506085049 51 240 0.9 2.6 0.00 0.00 0.00 92 1016.9
20260506084533 51 233 0.9 2.6 0.00 0.00 0.00 93 1016.8
20260506084045 51 244 1.7 2.6 0.00 0.00 0.00 93 1016.8
20260506083528 51 240 0.9 1.7 0.00 0.00 0.00 92 1016.7
20260506083057 51 240 0.9 1.7 0.00 0.00 0.00 93 1016.6
20260506082528 51 251 0.9 1.7 0.00 0.00 0.00 92 1016.7
20260506082101 51 250 0.9 1.7 0.00 0.00 0.00 93 1016.6
20260506081524 51 250 0.9 0.9 0.00 0.00 0.00 92 1016.5
20260506081036 51 250 0.0 0.9 0.00 0.00 0.00 92 1016.4
20260506080548 51 250 0.9 1.7 0.00 0.00 0.00 92 1016.4
20260506073023 51 231 0.0 0.0 0.00 0.00 0.00 92 1016.0
20260506072535 51 231 0.0 0.0 0.00 0.00 0.00 93 1015.9
20260506072039 51 231 0.0 0.0 0.00 0.00 0.00 92 1016.0
20260506071530 51 231 0.0 0.0 0.00 0.00 0.00 92 1016.0
20260506071039 51 231 0.0 0.0 0.00 0.00 0.00 92 1015.9
20260506070541 51 231 0.0 0.0 0.00 0.00 0.00 92 1016.0
20260506062101 52 231 0.9 0.9 0.00 0.00 0.00 91 1015.8
20260506061532 52 231 0.0 0.0 0.00 0.00 0.00 91 1015.9
20260506061045 53 231 0.0 0.9 0.00 0.00 0.00 91 1015.8
20260506060527 53 231 0.0 0.9 0.00 0.00 0.00 91 1015.8
20260506051051 54 237 0.9 1.7 0.00 0.00 0.00 90 1015.2
20260506050542 54 237 0.0 0.9 0.00 0.00 0.00 89 1015.1
20260506045028 55 237 0.9 2.6 0.00 0.00 0.00 88 1015.1
20260506044528 55 237 1.7 4.3 0.00 0.00 0.00 88 1015.0
20260506044040 56 236 2.6 4.3 0.00 0.00 0.00 88 1015.0
20260506043532 55 245 2.6 3.5 0.00 0.00 0.00 89 1015.0
20260506043037 55 247 2.6 3.5 0.00 0.00 0.00 88 1015.0
20260506042529 55 245 2.6 3.5 0.00 0.00 0.00 88 1014.9
20260506042040 55 243 2.6 3.5 0.00 0.00 0.00 88 1014.9
20260506041551 55 247 2.6 3.5 0.00 0.00 0.00 88 1014.8
20260506041105 55 240 2.6 3.5 0.00 0.00 0.00 88 1014.8